Total_Precipitation_Accumulation
2.80 2.82 2.74 2.72 2.58 2.73 2.85 2.90 2.72 2.60 2.53 2.38 2.16 2.16 2.34 2.42 2.55 2.57 2.65 2.71 2.53 2.69 3.19 3.60 3.64 3.63 3.56 3.48 3.44 3.41 3.31 3.32 3.18 2.87 2.46 2.19 2.08 1.93 1.89 1.90 1.96 1.97 1.95
3.15 3.16 3.23 3.17 2.87 2.87 2.99 3.18 3.09 2.94 2.65 2.48 2.31 2.30 2.32 2.33 2.50 2.69 2.75 2.79 2.66 2.61 3.02 3.55 3.86 3.99 3.97 3.95 3.80 3.58 3.38 3.25 3.23 3.10 2.84 2.48 2.27 2.12 2.04 1.96 1.93 1.89 1.84
3.47 3.49 3.63 3.57 3.20 3.11 3.23 3.41 3.45 3.35 2.91 2.60 2.51 2.53 2.54 2.64 2.55 2.55 2.75 2.84 2.73 2.72 2.94 3.14 3.45 3.69 3.86 3.98 4.00 3.84 3.62 3.36 3.22 3.15 3.11 2.89 2.61 2.36 2.21 2.09 2.04 1.95 1.84
3.51 3.67 3.58 3.40 3.33 3.37 3.60 3.85 3.82 3.76 3.50 3.20 2.98 2.68 2.53 2.58 2.55 2.66 2.66 2.73 3.02 2.91 2.87 2.75 2.94 3.26 3.54 3.85 4.07 4.09 3.98 3.74 3.43 3.23 3.19 3.03 2.78 2.49 2.27 2.12 2.11 2.06 1.97
3.62 3.82 3.87 3.82 3.72 3.73 3.79 3.68 3.92 3.83 3.88 3.64 3.12 2.87 2.68 2.59 2.60 2.62 2.70 2.68 2.80 2.93 2.87 2.68 2.73 2.98 3.22 3.57 3.82 4.07 4.16 4.04 3.78 3.46 3.31 3.20 2.99 2.73 2.50 2.33 2.20 2.15 2.07
3.96 4.11 4.07 4.11 4.15 4.22 4.07 4.04 4.14 3.93 3.78 3.65 3.22 2.98 2.79 2.58 2.57 2.54 2.47 2.51 2.59 2.51 2.56 2.54 2.66 2.59 2.81 3.12 3.42 3.84 4.26 4.36 4.26 3.98 3.74 3.60 3.32 2.96 2.65 2.50 2.38 2.29 2.22
4.55 4.63 4.65 4.63 4.46 4.36 4.22 4.10 4.07 3.97 3.71 3.49 3.43 3.07 2.62 2.26 2.14 2.08 2.11 2.19 2.20 2.19 2.29 2.49 2.64 2.59 2.47 2.60 2.91 3.47 4.16 4.47 4.51 4.34 4.09 3.92 3.58 3.16 2.87 2.65 2.48 2.35 2.26
5.27 5.12 5.12 4.84 4.51 4.35 4.19 4.01 3.93 3.77 3.43 3.30 3.28 3.31 2.84 2.38 1.94 1.68 1.78 1.78 1.83 2.01 2.11 2.08 2.19 2.25 2.18 2.25 2.24 2.64 3.08 3.55 3.97 4.18 4.13 3.93 3.68 3.36 3.09 2.88 2.77 2.70 2.57
5.31 5.10 4.89 4.74 4.54 4.36 4.18 4.08 3.96 3.81 3.49 3.28 3.20 3.42 3.27 2.81 2.25 1.93 1.75 1.75 1.84 1.94 1.92 1.89 1.90 1.90 1.95 2.07 2.13 2.27 2.48 2.72 3.16 3.53 3.74 3.66 3.47 3.26 3.12 3.05 3.00 3.04 3.04
4.94 4.57 4.41 4.45 4.35 4.15 3.93 3.61 3.48 3.47 3.39 3.20 3.10 2.97 2.94 2.88 2.68 2.34 2.06 2.02 2.04 2.00 1.93 1.89 1.97 2.05 2.06 2.16 2.15 2.02 2.02 2.11 2.42 2.76 3.14 3.26 3.15 3.04 3.00 3.11 3.22 3.35 3.39
4.39 4.10 4.00 4.10 4.02 3.76 3.56 3.28 3.07 2.93 2.91 2.94 2.94 2.86 2.73 2.67 2.50 2.38 2.20 2.09 2.05 1.97 1.88 1.84 1.93 2.03 2.08 2.06 2.04 1.92 1.93 1.93 2.08 2.28 2.55 2.86 2.99 3.04 3.09 3.17 3.28 3.35 3.41
3.82 3.47 3.25 3.20 3.11 2.92 2.83 2.80 2.72 2.67 2.66 2.69 2.70 2.61 2.54 2.52 2.46 2.47 2.33 2.09 2.04 2.06 1.98 1.84 1.75 1.77 1.80 1.90 1.89 2.02 1.91 1.88 1.93 2.01 2.03 2.16 2.42 2.65 2.87 3.00 3.04 3.19 3.34
3.14 2.76 2.53 2.44 2.40 2.36 2.34 2.37 2.38 2.38 2.36 2.41 2.39 2.35 2.31 2.23 2.24 2.42 2.52 2.36 2.19 2.05 2.01 1.90 1.72 1.72 1.66 1.75 1.95 1.99 1.85 1.77 1.82 1.82 1.73 1.72 1.90 2.12 2.23 2.40 2.62 2.82 3.05
2.48 2.34 2.18 2.05 2.02 2.06 2.07 2.17 2.14 2.06 2.05 2.08 2.01 2.06 2.06 1.99 2.10 2.27 2.42 2.59 2.56 2.28 2.06 1.94 1.81 1.73 1.71 1.75 1.92 1.92 1.73 1.64 1.58 1.63 1.64 1.59 1.61 1.69 1.78 1.86 2.00 2.14 2.35
1.96 1.92 1.87 1.83 1.75 1.71 1.69 1.68 1.69 1.71 1.77 1.77 1.74 1.73 1.71 1.73 1.87 2.00 2.16 2.42 2.66 2.56 2.25 2.01 1.93 1.84 1.77 1.83 2.01 1.75 1.65 1.64 1.49 1.40 1.39 1.37 1.41 1.47 1.52 1.51 1.54 1.62 1.72
1.56 1.57 1.52 1.51 1.55 1.57 1.50 1.41 1.36 1.39 1.45 1.51 1.58 1.55 1.52 1.51 1.61 1.65 1.77 1.94 2.24 2.46 2.29 1.91 1.84 1.74 1.71 1.63 1.85 1.65 1.64 1.64 1.42 1.25 1.18 1.15 1.18 1.24 1.27 1.29 1.31 1.35 1.44
1.39 1.35 1.35 1.34 1.31 1.30 1.28 1.29 1.24 1.28 1.38 1.40 1.37 1.39 1.41 1.47 1.54 1.50 1.56 1.68 1.85 2.10 2.26 2.04 1.87 1.76 1.73 1.77 1.74 1.61 1.51 1.42 1.32 1.25 1.10 1.03 1.02 1.11 1.13 1.13 1.19 1.23 1.25
1.34 1.31 1.32 1.24 1.10 1.06 1.15 1.22 1.21 1.18 1.30 1.31 1.27 1.34 1.35 1.38 1.46 1.49 1.58 1.67 1.77 1.96 2.11 2.17 1.99 1.83 1.76 1.75 1.75 1.66 1.37 1.24 1.22 1.27 1.11 1.01 0.94 0.93 1.03 1.03 1.05 1.13 1.23
1.30 1.24 1.19 1.18 1.10 1.00 1.02 1.04 1.08 1.06 1.13 1.19 1.19 1.27 1.31 1.37 1.38 1.42 1.51 1.57 1.69 1.80 1.99 2.09 1.98 1.85 1.76 1.70 1.82 1.68 1.53 1.58 1.28 1.20 1.12 1.05 0.98 0.96 1.18 1.22 1.02 1.02 1.09
1.23 1.19 1.11 1.06 1.04 0.99 0.88 0.84 0.88 0.97 1.06 1.07 1.06 1.15 1.21 1.28 1.29 1.38 1.41 1.50 1.58 1.77 1.95 2.02 1.91 1.79 1.73 1.75 1.87 1.87 1.77 1.67 1.50 1.18 1.17 1.11 1.05 1.07 1.40 1.92 1.43 1.13 1.08
1.05 1.03 0.97 0.93 0.94 0.88 0.76 0.78 0.81 0.83 0.94 0.98 0.98 1.04 1.09 1.10 1.12 1.18 1.19 1.33 1.51 1.71 1.82 1.92 1.87 1.81 1.75 1.87 1.88 1.82 1.76 1.73 1.56 1.36 1.35 1.22 1.32 1.58 2.09 2.71 2.24 1.63 1.40
1.08 1.04 1.00 0.96 0.91 0.78 0.75 0.72 0.73 0.78 0.87 0.97 1.07 1.07 0.99 0.97 0.93 0.89 0.94 1.04 1.24 1.50 1.74 1.87 1.83 1.82 1.79 1.85 1.97 1.94 1.90 1.92 1.84 1.53 1.48 1.41 1.59 2.33 2.95 3.22 2.76 1.94 1.64
1.24 1.14 1.04 1.00 0.94 0.83 0.72 0.60 0.59 0.68 0.87 1.01 1.10 1.08 0.90 0.83 0.94 0.95 0.95 0.96 1.07 1.20 1.46 1.75 1.86 1.77 1.80 1.89 2.08 2.13 2.06 2.03 1.94 1.68 1.73 1.70 1.86 2.67 2.89 3.00 2.81 2.01 1.70
1.17 1.11 1.03 0.99 0.96 0.76 0.64 0.56 0.58 0.64 0.78 0.83 0.86 0.93 1.01 1.01 0.94 0.99 1.00 1.08 1.15 1.24 1.31 1.46 1.70 1.67 1.63 1.77 1.96 2.00 1.98 1.93 1.84 1.70 1.74 1.87 2.04 2.53 2.48 2.57 2.60 2.06 1.74
1.12 1.02 0.94 0.93 0.90 0.76 0.68 0.63 0.63 0.67 0.74 0.71 0.68 0.73 0.80 0.86 0.85 0.92 1.04 1.22 1.27 1.38 1.34 1.50 1.53 1.48 1.49 1.54 1.55 1.65 1.92 2.09 1.98 1.70 1.57 1.71 1.89 2.19 2.24 2.30 2.18 1.98 1.78
1.10 0.91 0.84 0.86 0.82 0.79 0.69 0.58 0.56 0.58 0.69 0.71 0.73 0.78 0.75 0.68 0.73 0.83 1.04 1.30 1.47 1.52 1.58 1.70 1.65 1.62 1.53 1.50 1.43 1.49 1.83 2.09 2.07 1.84 1.55 1.59 1.70 1.89 2.14 2.09 1.90 1.77 1.79